WetterOnline ( https://www.wetteronline.de )

Wetter aktuell Michelau

Aktuelles Wetter: Bamberg (243m)

6-stündlich | Neueste Meldungen
Ortszeit Temperatur Wetter
Mo, 06.12. 1:00 -0.9° C bewölkt
So, 05.12. 19:00 1.8° C bedeckt
So, 05.12. 13:00 4.6° C wolkig
So, 05.12. 7:00 1.5° C bedeckt
So, 05.12. 1:00 4.3° C bewölkt
Sa, 04.12. 19:00 3.4° C bedeckt
Sa, 04.12. 13:00 1.9° C bedeckt
Sa, 04.12. 7:00 0.0° C Schneefall
Ortszeit Temperatur Wetter
Mo, 06.12. 3:00 -1.3° C bewölkt
Mo, 06.12. 2:50 -1.3° C bewölkt
Mo, 06.12. 2:40 -1.4° C wolkig
Mo, 06.12. 2:30 -1.4° C fast wolkenlos
Mo, 06.12. 2:20 -1.4° C fast wolkenlos
Mo, 06.12. 2:10 -1.2° C wolkenlos
Mo, 06.12. 2:00 -0.9° C leicht bewölkt
Mo, 06.12. 1:30 -0.6° C bedeckt
Mo, 06.12. 1:00 -0.9° C bewölkt
Mo, 06.12. 0:30 -1.0° C fast wolkenlos
Mo, 06.12. 0:00 -0.6° C bewölkt
Ortszeit Relative Feuchte Sichtweite
Mo, 06.12. 1:00 96% 13 km
So, 05.12. 19:00 94% 30 km
So, 05.12. 13:00 76% 50 km
So, 05.12. 7:00 92% 40 km
So, 05.12. 1:00 84% 60 km
Sa, 04.12. 19:00 96% 11 km
Sa, 04.12. 13:00 94% 5.0 km
Sa, 04.12. 7:00 94% 0.9 km
Ortszeit Relative Feuchte Sichtweite
Mo, 06.12. 3:00 96% 15 km
Mo, 06.12. 2:50 96% -
Mo, 06.12. 2:40 96% -
Mo, 06.12. 2:30 95% 12 km
Mo, 06.12. 2:20 95% -
Mo, 06.12. 2:10 95% -
Mo, 06.12. 2:00 96% 11 km
Mo, 06.12. 1:30 96% 15 km
Mo, 06.12. 1:00 96% 13 km
Mo, 06.12. 0:30 96% 15 km
Mo, 06.12. 0:00 96% 15 km
Ortszeit Niederschlagsmenge Niederschlagsart
Mo, 06.12. 1:00 0.0 l/m2 in 6 Std. -
So, 05.12. 19:00 0.1 l/m2 in 12 Std. Regen
So, 05.12. 13:00 0.0 l/m2 in 6 Std. -
So, 05.12. 7:00 1 l/m2 in 12 Std. -
So, 05.12. 1:00 1 l/m2 in 6 Std. Regen
Sa, 04.12. 19:00 5 l/m2 in 12 Std. Regen
Sa, 04.12. 13:00 1 l/m2 in 6 Std. Schnee, Sprühregen
Sa, 04.12. 7:00 3 l/m2 in 12 Std. Schnee, Sprühregen
Ortszeit Niederschlagsmenge Niederschlagsart
Mo, 06.12. 3:00 0.0 l/m2 in 1 Std. -
Mo, 06.12. 2:50 keine Meldung -
Mo, 06.12. 2:40 keine Meldung -
Mo, 06.12. 2:30 0.0 l/m2 in 1 Std. -
Mo, 06.12. 2:20 keine Meldung -
Mo, 06.12. 2:10 keine Meldung -
Mo, 06.12. 2:00 0.0 l/m2 in 1 Std. -
Mo, 06.12. 1:30 0.0 l/m2 in 1 Std. -
Mo, 06.12. 1:00 0.0 l/m2 in 1 Std. -
Mo, 06.12. 0:30 0.0 l/m2 in 1 Std. -
Mo, 06.12. 0:00 0.0 l/m2 in 1 Std. -
Ortszeit Stärke Spitze Richtung
km/h Bft. km/h Grad Sektor
Mo, 06.12. 1:00 2 1 7 90° O
So, 05.12. 19:00 2 1 11 180° S
So, 05.12. 13:00 7 2 14 150° SO
So, 05.12. 7:00 7 2 25 110° O
So, 05.12. 1:00 7 2 29 260° W
Sa, 04.12. 19:00 11 2 22 150° SO
Sa, 04.12. 13:00 4 1 18 180° S
Sa, 04.12. 7:00 11 2 25 150° SO
Ortszeit Stärke Spitze Richtung
km/h Bft. km/h Grad Sektor
Mo, 06.12. 3:00 2 1 4 50° NO
Mo, 06.12. 2:50 2 1 - 50° NO
Mo, 06.12. 2:40 2 1 - 50° NO
Mo, 06.12. 2:30 0 0 4 - -
Mo, 06.12. 2:20 0 0 - 100° O
Mo, 06.12. 2:10 2 1 - 40° NO
Mo, 06.12. 2:00 2 1 4 90° O
Mo, 06.12. 1:30 0 0 4 - -
Mo, 06.12. 1:00 2 1 4 90° O
Mo, 06.12. 0:30 0 0 4 - -
Mo, 06.12. 0:00 0 0 4 - -
Ortszeit Untergrenze Bedeckung Gattung
total tief tief mittel hoch
Mo, 06.12. 1:00 1800 m 6/8 8/8 - - -
So, 05.12. 19:00 1500 m 8/8 8/8 - - -
So, 05.12. 13:00 480 m 5/8 5/8 - - -
So, 05.12. 7:00 1800 m 8/8 8/8 - - -
So, 05.12. 1:00 510 m 7/8 7/8 - - -
Sa, 04.12. 19:00 1020 m 8/8 8/8 - - -
Sa, 04.12. 13:00 90 m 8/8 8/8 - - -
Sa, 04.12. 7:00 120 m 7/8 8/8 - - -
Ortszeit Bedeckungsgrad in Achtel und Wolkenuntergrenze
Mo, 06.12. 3:00 7(1800m)
Mo, 06.12. 2:50 7(1800m)
Mo, 06.12. 2:40 6(1800m)
Mo, 06.12. 2:30 1(1800m)
Mo, 06.12. 2:20 1(1800m)
Mo, 06.12. 2:10 keine Wolken
Mo, 06.12. 2:00 3(1800m)
Mo, 06.12. 1:30 2(840m) 3(1080m) 8(1800m)
Mo, 06.12. 1:00 6(1800m) 2(1050m) 8(1800m)
Mo, 06.12. 0:30 1(1500m)
Mo, 06.12. 0:00 6(1500m) 7(4200m)
Ortszeit Luftdruck NN (hPa) Tendenz (hPa in 3 Std.)
Mo, 06.12. 1:00 1011 + 1,4
So, 05.12. 19:00 1008 + 1,3
So, 05.12. 13:00 1006 - 0,1
So, 05.12. 7:00 1005 + 0,7
So, 05.12. 1:00 1002 + 2,5
Sa, 04.12. 19:00 997 - 0,2
Sa, 04.12. 13:00 1000 - 2,3
Sa, 04.12. 7:00 1003 - 2,1
Ortszeit Luftdruck NN (hPa) Tendenz (hPa in 3 Std.)
Mo, 06.12. 3:00 1012 + 1,5
Mo, 06.12. 2:50 1012 keine Meldung
Mo, 06.12. 2:40 1012 keine Meldung
Mo, 06.12. 2:30 1012 + 1,8
Mo, 06.12. 2:20 1012 keine Meldung
Mo, 06.12. 2:10 1012 keine Meldung
Mo, 06.12. 2:00 1012 + 1,5
Mo, 06.12. 1:30 1011 + 1,3
Mo, 06.12. 1:00 1011 + 1,4
Mo, 06.12. 0:30 1011 + 1,3
Mo, 06.12. 0:00 1011 + 1,1
Ortszeit Schneehöhe (cm)
Mo, 06.12. 1:00 0
So, 05.12. 19:00 0
So, 05.12. 13:00 0
So, 05.12. 7:00 0
So, 05.12. 1:00 0
Sa, 04.12. 19:00 0
Sa, 04.12. 13:00 -
Sa, 04.12. 7:00 2
Ortszeit Schneehöhe (cm)
Mo, 06.12. 3:00 0
Mo, 06.12. 2:50 0
Mo, 06.12. 2:40 0
Mo, 06.12. 2:30 0
Mo, 06.12. 2:20 0
Mo, 06.12. 2:10 0
Mo, 06.12. 2:00 0
Mo, 06.12. 1:30 0
Mo, 06.12. 1:00 0
Mo, 06.12. 0:30 0
Mo, 06.12. 0:00 0
Link zu dieser Seite / Seite empfehlen

Das Wetter in ...